Location: *
(60.1759°S, 155.0663°W)
Time: 03:06:15
(UTC+00:00)

FENGYUN 3A - Pass Details

Date: 17 September 2019
Orbit: 824 x 836 km, 98.4° (Epoch: 19 October)

Event Time Altitude Azimuth Distance (km) Brightness Sun altitude
Rises 14:12:51 0° 29° (NNE) 3,397 6.9 -16.6°
Reaches altitude 10° 14:15:12 10° 30° (NNE) 2,469 6.2 -16.3°
Maximum altitude 14:20:40 72° 113° (ESE) 899 4.0 -15.7°
Drops below altitude 10° 14:26:11 10° 195° (SSW) 2,493 6.2 -15.1°
Sets 14:28:35 0° 197° (SSW) 3,432 6.9 -14.8°
